| time (UTC) | temp F | wind direction | speed MPH | gust MPH | rain 1hr in | rain 24hr in | rain mn in | humidity % | barometer mb |
| 20260507130510 | 0 | 0.0 | 0.0 | 0.00 | 0.00 | 0.00 | 1016.9 | ||
| 20260507130028 | 0 | 0.0 | 0.0 | 0.00 | 0.00 | 0.00 | 1016.8 | ||
| 20260507125512 | 0 | 120 | 0.0 | 0.0 | 0.00 | 0.00 | 0.00 | 1016.8 | |
| 20260507125012 | 55 | 0.0 | 0.0 | 0.00 | 0.00 | 0.00 | 1016.7 | ||
| 20260507124525 | 55 | 120 | 0.0 | 0.0 | 0.00 | 0.00 | 0.00 | 1016.7 | |
| 20260507124013 | 0 | 0.0 | 0.0 | 0.00 | 0.00 | 0.00 | 1016.6 | ||
| 20260507123509 | 0 | 0.0 | 0.0 | 0.00 | 0.00 | 0.00 | 1016.6 | ||
| 20260507123026 | 55 | 0.0 | 0.0 | 0.00 | 0.00 | 0.00 | 1016.6 | ||
| 20260507122509 | 55 | 0.0 | 0.0 | 0.00 | 0.00 | 0.00 | 1016.6 | ||
| 20260507122014 | 56 | 0.0 | 0.0 | 0.00 | 0.00 | 0.00 | 1016.6 | ||
| 20260507121528 | 56 | 120 | 0.0 | 0.0 | 0.00 | 0.00 | 0.00 | 1016.6 | |
| 20260507121010 | 56 | 0.0 | 0.0 | 0.00 | 0.00 | 0.00 | 100 | 1016.6 | |
| 20260507120510 | 56 | 120 | 0.0 | 0.0 | 0.00 | 0.00 | 0.00 | 100 | 1016.6 |
| 20260507120023 | 56 | 120 | 0.0 | 0.0 | 0.00 | 0.00 | 0.00 | 100 | 1016.5 |
| 20260507115510 | 0 | 120 | 0.0 | 0.0 | 0.00 | 0.00 | 0.00 | 100 | 1016.6 |
| 20260507115016 | 0 | 0.0 | 0.0 | 0.00 | 0.00 | 0.00 | 100 | 1016.6 | |
| 20260507114527 | 0 | 0.0 | 0.0 | 0.00 | 0.00 | 0.00 | 1016.6 | ||
| 20260507114011 | 56 | 0.0 | 0.0 | 0.00 | 0.00 | 0.00 | 1016.5 | ||
| 20260507113508 | 56 | 0.0 | 0.0 | 0.00 | 0.00 | 0.00 | 1016.5 | ||
| 20260507113028 | 0 | 0.0 | 0.0 | 0.00 | 0.00 | 0.00 | 100 | 1016.5 | |
| 20260507112513 | 0 | 0.0 | 0.0 | 0.00 | 0.00 | 0.00 | 100 | 1016.6 | |
| 20260507112008 | 56 | 0.0 | 0.0 | 0.00 | 0.00 | 0.00 | 1016.6 | ||
| 20260507111539 | 56 | 120 | 0.0 | 0.0 | 0.00 | 0.00 | 0.00 | 100 | 1016.6 |
| 20260507111008 | 56 | 120 | 0.0 | 0.0 | 0.00 | 0.00 | 0.00 | 100 | 1016.7 |
| 20260507110512 | 56 | 120 | 0.0 | 0.0 | 0.00 | 0.00 | 0.00 | 100 | 1016.7 |
| 20260507104003 | 56 | 34 | 2.0 | 3.0 | 0.00 | 0.00 | 0.00 | 89 | 1016.9 |
| 20260507103503 | 56 | 1 | 1.0 | 4.0 | 0.00 | 0.00 | 0.00 | 89 | 1017.0 |
| 20260507103013 | 56 | 38 | 2.0 | 4.0 | 0.00 | 0.00 | 0.00 | 89 | 1017.0 |
| 20260507102503 | 56 | 26 | 2.0 | 4.0 | 0.00 | 0.00 | 0.00 | 89 | 1017.0 |
| 20260507102008 | 56 | 20 | 3.0 | 4.0 | 0.00 | 0.00 | 0.00 | 89 | 1017.0 |
| 20260507101520 | 56 | 14 | 2.0 | 4.0 | 0.00 | 0.00 | 0.00 | 89 | 1017.1 |
| 20260507101004 | 56 | 25 | 2.0 | 4.0 | 0.00 | 0.00 | 0.00 | 89 | 1017.1 |
| 20260507100507 | 56 | 6 | 1.0 | 5.0 | 0.00 | 0.00 | 0.00 | 89 | 1017.1 |
| 20260507100025 | 56 | 36 | 3.0 | 5.0 | 0.00 | 0.00 | 0.00 | 89 | 1017.2 |
| 20260507095511 | 56 | 37 | 2.0 | 4.0 | 0.00 | 0.00 | 0.00 | 89 | 1017.2 |
| 20260507095011 | 56 | 30 | 2.0 | 3.0 | 0.00 | 0.00 | 0.00 | 89 | 1017.2 |
| 20260507094538 | 56 | 1 | 0.0 | 4.0 | 0.00 | 0.00 | 0.00 | 89 | 1017.3 |
| 20260507094005 | 56 | 12 | 2.0 | 4.0 | 0.00 | 0.00 | 0.00 | 89 | 1017.3 |
| 20260507093503 | 56 | 26 | 1.0 | 4.0 | 0.00 | 0.00 | 0.00 | 89 | 1017.3 |
| 20260507093017 | 56 | 44 | 2.0 | 4.0 | 0.00 | 0.00 | 0.00 | 89 | 1017.4 |
| 20260507092504 | 56 | 45 | 2.0 | 3.0 | 0.00 | 0.00 | 0.00 | 89 | 1017.5 |
| 20260507092006 | 56 | 17 | 1.0 | 5.0 | 0.00 | 0.00 | 0.00 | 88 | 1017.4 |
| 20260507091526 | 56 | 26 | 2.0 | 5.0 | 0.00 | 0.00 | 0.00 | 88 | 1017.5 |
| 20260507091009 | 56 | 13 | 2.0 | 4.0 | 0.00 | 0.00 | 0.00 | 88 | 1017.5 |
| 20260507090504 | 56 | 31 | 2.0 | 3.0 | 0.00 | 0.00 | 0.00 | 88 | 1017.6 |
| 20260507090032 | 57 | 41 | 2.0 | 3.0 | 0.00 | 0.00 | 0.00 | 88 | 1017.7 |
| 20260507085505 | 56 | 31 | 1.0 | 3.0 | 0.00 | 0.00 | 0.00 | 88 | 1017.7 |
| 20260507085006 | 56 | 28 | 1.0 | 5.0 | 0.00 | 0.00 | 0.00 | 88 | 1017.7 |
| 20260507084533 | 56 | 29 | 2.0 | 5.0 | 0.00 | 0.00 | 0.00 | 88 | 1017.8 |
| 20260507084007 | 56 | 354 | 3.0 | 5.0 | 0.00 | 0.00 | 0.00 | 87 | 1017.7 |
| 20260507083509 | 56 | 333 | 3.0 | 4.0 | 0.00 | 0.00 | 0.00 | 87 | 1017.8 |
| 20260507083023 | 57 | 358 | 2.0 | 5.0 | 0.00 | 0.00 | 0.00 | 87 | 1017.8 |
| 20260507082503 | 57 | 360 | 2.0 | 5.0 | 0.00 | 0.00 | 0.00 | 87 | 1017.9 |
| 20260507082005 | 57 | 355 | 3.0 | 5.0 | 0.00 | 0.00 | 0.00 | 87 | 1017.9 |
| 20260507081519 | 57 | 352 | 3.0 | 5.0 | 0.00 | 0.00 | 0.00 | 87 | 1018.0 |
| 20260507081003 | 57 | 347 | 3.0 | 5.0 | 0.00 | 0.00 | 0.00 | 87 | 1018.0 |
| 20260507080506 | 57 | 349 | 2.0 | 3.0 | 0.00 | 0.00 | 0.00 | 87 | 1018.1 |
| 20260507080015 | 57 | 360 | 2.0 | 4.0 | 0.00 | 0.00 | 0.00 | 87 | 1018.1 |
| 20260507075508 | 57 | 355 | 2.0 | 4.0 | 0.00 | 0.00 | 0.00 | 86 | 1018.2 |
| 20260507075011 | 57 | 342 | 2.0 | 4.0 | 0.00 | 0.00 | 0.00 | 86 | 1018.2 |
| 20260507074519 | 57 | 360 | 2.0 | 6.0 | 0.00 | 0.00 | 0.00 | 86 | 1018.2 |
| 20260507074007 | 57 | 354 | 3.0 | 6.0 | 0.00 | 0.00 | 0.00 | 85 | 1018.3 |
| 20260507073507 | 58 | 358 | 3.0 | 5.0 | 0.00 | 0.00 | 0.00 | 85 | 1018.3 |
| 20260507073025 | 58 | 322 | 3.0 | 4.0 | 0.00 | 0.00 | 0.00 | 85 | 1018.2 |
| 20260507072506 | 58 | 323 | 1.0 | 3.0 | 0.00 | 0.00 | 0.00 | 85 | 1018.1 |
| 20260507072008 | 58 | 352 | 1.0 | 4.0 | 0.00 | 0.00 | 0.00 | 85 | 1018.1 |
| 20260507071526 | 58 | 341 | 2.0 | 4.0 | 0.00 | 0.00 | 0.00 | 85 | 1018.1 |
| 20260507071008 | 58 | 344 | 2.0 | 4.0 | 0.00 | 0.00 | 0.00 | 85 | 1018.3 |
| 20260507070504 | 59 | 337 | 2.0 | 6.0 | 0.00 | 0.00 | 0.00 | 84 | 1018.4 |
| 20260507070018 | 59 | 340 | 2.0 | 6.0 | 0.00 | 0.00 | 0.00 | 84 | 1018.3 |
| 20260507065507 | 59 | 336 | 4.0 | 6.0 | 0.00 | 0.00 | 0.00 | 84 | 1018.3 |
| 20260507065004 | 59 | 345 | 2.0 | 4.0 | 0.00 | 0.00 | 0.00 | 84 | 1018.2 |
| 20260507064517 | 59 | 335 | 2.0 | 4.0 | 0.00 | 0.00 | 0.00 | 84 | 1018.2 |
| 20260507064005 | 59 | 345 | 2.0 | 3.0 | 0.00 | 0.00 | 0.00 | 84 | 1018.2 |
| 20260507063510 | 59 | 329 | 2.0 | 3.0 | 0.00 | 0.00 | 0.00 | 84 | 1018.2 |
| 20260507063019 | 59 | 338 | 2.0 | 3.0 | 0.00 | 0.00 | 0.00 | 84 | 1018.2 |
| 20260507062510 | 60 | 359 | 2.0 | 3.0 | 0.00 | 0.00 | 0.00 | 83 | 1018.3 |
| 20260507061525 | 60 | 352 | 1.0 | 2.0 | 0.00 | 0.00 | 0.00 | 83 | 1018.3 |
| 20260507061010 | 60 | 8 | 1.0 | 2.0 | 0.00 | 0.00 | 0.00 | 83 | 1018.3 |
| 20260507060507 | 60 | 354 | 1.0 | 3.0 | 0.00 | 0.00 | 0.00 | 83 | 1018.3 |
| 20260507060040 | 60 | 359 | 0.0 | 4.0 | 0.00 | 0.00 | 0.00 | 82 | 1018.3 |
| 20260507055504 | 60 | 347 | 2.0 | 4.0 | 0.00 | 0.00 | 0.00 | 82 | 1018.3 |
| 20260507055004 | 61 | 340 | 2.0 | 4.0 | 0.00 | 0.00 | 0.00 | 82 | 1018.2 |
| 20260507054515 | 61 | 336 | 1.0 | 3.0 | 0.00 | 0.00 | 0.00 | 82 | 1018.2 |
| 20260507054007 | 61 | 351 | 1.0 | 4.0 | 0.00 | 0.00 | 0.00 | 82 | 1018.3 |
| 20260507053505 | 62 | 341 | 2.0 | 5.0 | 0.00 | 0.00 | 0.00 | 82 | 1018.3 |
| 20260507053020 | 62 | 334 | 2.0 | 5.0 | 0.00 | 0.00 | 0.00 | 82 | 1018.3 |
| 20260507052506 | 62 | 328 | 3.0 | 9.0 | 0.00 | 0.00 | 0.00 | 83 | 1018.2 |
| 20260507052013 | 62 | 341 | 4.0 | 9.0 | 0.00 | 0.00 | 0.00 | 83 | 1018.2 |
| 20260507051524 | 62 | 284 | 6.0 | 9.0 | 0.00 | 0.00 | 0.00 | 84 | 1018.2 |
| 20260507050509 | 62 | 274 | 7.0 | 10.0 | 0.00 | 0.00 | 0.00 | 83 | 1018.2 |
| 20260507050024 | 62 | 274 | 5.0 | 10.0 | 0.00 | 0.00 | 0.00 | 83 | 1018.1 |
| 20260507045509 | 62 | 281 | 7.0 | 10.0 | 0.00 | 0.00 | 0.00 | 83 | 1018.1 |
| 20260507045009 | 62 | 269 | 7.0 | 10.0 | 0.00 | 0.00 | 0.00 | 83 | 1018.2 |
| 20260507044544 | 62 | 267 | 6.0 | 10.0 | 0.00 | 0.00 | 0.00 | 83 | 1018.2 |
| 20260507044007 | 62 | 274 | 6.0 | 9.0 | 0.00 | 0.00 | 0.00 | 84 | 1018.2 |
| 20260507043506 | 62 | 282 | 5.0 | 8.0 | 0.00 | 0.00 | 0.00 | 84 | 1018.1 |
| 20260507043018 | 62 | 283 | 6.0 | 8.0 | 0.00 | 0.00 | 0.00 | 84 | 1018.2 |
| 20260507042507 | 62 | 282 | 4.0 | 8.0 | 0.00 | 0.00 | 0.00 | 84 | 1018.2 |
| 20260507042010 | 62 | 275 | 5.0 | 9.0 | 0.00 | 0.00 | 0.00 | 84 | 1018.2 |
| 20260507041524 | 62 | 295 | 4.0 | 9.0 | 0.00 | 0.00 | 0.00 | 84 | 1018.2 |
| 20260507040506 | 62 | 276 | 5.0 | 9.0 | 0.00 | 0.00 | 0.00 | 84 | 1018.2 |
| 20260507040031 | 62 | 273 | 7.0 | 9.0 | 0.00 | 0.00 | 0.00 | 84 | 1018.2 |
| 20260507035019 | 62 | 257 | 7.0 | 9.0 | 0.00 | 0.00 | 0.00 | 83 | 1018.1 |
| 20260507034523 | 62 | 278 | 6.0 | 10.0 | 0.00 | 0.00 | 0.00 | 83 | 1018.1 |
| 20260507034007 | 62 | 269 | 7.0 | 10.0 | 0.00 | 0.00 | 0.00 | 83 | 1018.0 |
| 20260507033508 | 62 | 269 | 6.0 | 10.0 | 0.00 | 0.00 | 0.00 | 82 | 1017.9 |
| 20260507033028 | 62 | 276 | 7.0 | 10.0 | 0.00 | 0.00 | 0.00 | 81 | 1018.0 |
| 20260507032509 | 62 | 274 | 8.0 | 10.0 | 0.00 | 0.00 | 0.00 | 81 | 1017.9 |
| 20260507032010 | 62 | 284 | 7.0 | 11.0 | 0.00 | 0.00 | 0.00 | 82 | 1018.0 |
| 20260507031520 | 62 | 283 | 8.0 | 11.0 | 0.00 | 0.00 | 0.00 | 82 | 1017.9 |
| 20260507031006 | 62 | 275 | 7.0 | 11.0 | 0.00 | 0.00 | 0.00 | 82 | 1017.9 |
| 20260507030024 | 62 | 293 | 7.0 | 11.0 | 0.00 | 0.00 | 0.00 | 83 | 1017.6 |
| 20260507025509 | 62 | 281 | 7.0 | 11.0 | 0.00 | 0.00 | 0.00 | 83 | 1017.5 |
| 20260507024528 | 62 | 278 | 8.0 | 11.0 | 0.00 | 0.00 | 0.00 | 84 | 1017.5 |
| 20260507023509 | 63 | 310 | 6.0 | 10.0 | 0.00 | 0.00 | 0.00 | 84 | 1017.4 |
| 20260507023025 | 63 | 282 | 8.0 | 10.0 | 0.00 | 0.00 | 0.00 | 84 | 1017.3 |
| 20260507022513 | 63 | 271 | 7.0 | 10.0 | 0.00 | 0.00 | 0.00 | 83 | 1017.3 |
| 20260507022009 | 63 | 274 | 8.0 | 10.0 | 0.00 | 0.00 | 0.00 | 83 | 1017.2 |
| 20260507021521 | 63 | 302 | 8.0 | 10.0 | 0.00 | 0.00 | 0.00 | 83 | 1017.2 |
| 20260507021009 | 63 | 245 | 7.0 | 10.0 | 0.00 | 0.00 | 0.00 | 83 | 1017.2 |
| 20260507020508 | 63 | 269 | 7.0 | 10.0 | 0.00 | 0.00 | 0.00 | 83 | 1017.2 |
| 20260507020030 | 64 | 283 | 7.0 | 10.0 | 0.00 | 0.00 | 0.00 | 82 | 1017.2 |
| 20260507015008 | 64 | 272 | 8.0 | 11.0 | 0.00 | 0.00 | 0.00 | 82 | 1017.1 |
| 20260507014525 | 64 | 277 | 7.0 | 11.0 | 0.00 | 0.00 | 0.00 | 82 | 1017.1 |
| 20260507013508 | 64 | 274 | 6.0 | 12.0 | 0.00 | 0.00 | 0.00 | 83 | 1017.1 |
| 20260507012008 | 64 | 271 | 8.0 | 12.0 | 0.00 | 0.00 | 0.00 | 81 | 1017.1 |
| 20260507011528 | 64 | 271 | 8.0 | 14.0 | 0.00 | 0.00 | 0.00 | 82 | 1017.0 |
| 20260507011012 | 64 | 217 | 8.0 | 14.0 | 0.00 | 0.00 | 0.00 | 81 | 1017.0 |
| 20260507010509 | 65 | 258 | 7.0 | 14.0 | 0.00 | 0.00 | 0.00 | 81 | 1017.0 |
| 20260507010026 | 65 | 263 | 10.0 | 14.0 | 0.00 | 0.00 | 0.00 | 80 | 1016.9 |
| 20260507005508 | 65 | 274 | 8.0 | 14.0 | 0.00 | 0.00 | 0.00 | 80 | 1016.9 |
| 20260507004505 | 65 | 231 | 10.0 | 14.0 | 0.00 | 0.00 | 0.00 | 77 | 1016.8 |
| 20260507004002 | 65 | 266 | 9.0 | 14.0 | 0.00 | 0.00 | 0.00 | 76 | 1016.9 |
| 20260507003502 | 65 | 261 | 9.0 | 14.0 | 0.00 | 0.00 | 0.00 | 76 | 1016.9 |
| 20260507003017 | 65 | 276 | 9.0 | 14.0 | 0.00 | 0.00 | 0.00 | 76 | 1016.8 |
| 20260507002504 | 65 | 257 | 9.0 | 14.0 | 0.00 | 0.00 | 0.00 | 76 | 1016.8 |
| 20260507002007 | 65 | 212 | 8.0 | 13.0 | 0.00 | 0.00 | 0.00 | 77 | 1016.8 |
| 20260507001522 | 65 | 255 | 9.0 | 12.0 | 0.00 | 0.00 | 0.00 | 78 | 1016.8 |
| 20260507001004 | 65 | 264 | 7.0 | 12.0 | 0.00 | 0.00 | 0.00 | 78 | 1016.8 |
| 20260507000018 | 65 | 243 | 10.0 | 15.0 | 0.00 | 0.00 | 0.00 | 79 | 1016.6 |
| 20260506235008 | 65 | 248 | 8.0 | 13.0 | 0.00 | 0.00 | 0.00 | 79 | 1016.6 |
| 20260506234523 | 65 | 228 | 9.0 | 13.0 | 0.00 | 0.00 | 0.00 | 79 | 1016.6 |
| 20260506233007 | 65 | 244 | 8.0 | 14.0 | 0.00 | 0.00 | 0.00 | 79 | 1016.6 |
| 20260506232503 | 65 | 253 | 9.0 | 14.0 | 0.00 | 0.00 | 0.00 | 79 | 1016.6 |
| 20260506232003 | 65 | 252 | 8.0 | 14.0 | 0.00 | 0.00 | 0.00 | 79 | 1016.7 |
| 20260506231514 | 65 | 294 | 9.0 | 13.0 | 0.00 | 0.00 | 0.00 | 79 | 1016.7 |
| 20260506231003 | 65 | 259 | 9.0 | 14.0 | 0.00 | 0.00 | 0.00 | 79 | 1016.7 |
| 20260506230505 | 65 | 255 | 10.0 | 15.0 | 0.00 | 0.00 | 0.00 | 78 | 1016.7 |
| 20260506230019 | 65 | 271 | 9.0 | 15.0 | 0.00 | 0.00 | 0.00 | 79 | 1016.8 |
| 20260506225507 | 65 | 273 | 11.0 | 14.0 | 0.00 | 0.00 | 0.00 | 80 | 1016.9 |
| 20260506225007 | 65 | 279 | 9.0 | 15.0 | 0.00 | 0.00 | 0.00 | 80 | 1017.0 |
| 20260506224521 | 65 | 249 | 9.0 | 15.0 | 0.00 | 0.00 | 0.00 | 79 | 1017.1 |
| 20260506223506 | 65 | 252 | 10.0 | 15.0 | 0.00 | 0.00 | 0.00 | 79 | 1017.2 |
| 20260506223024 | 65 | 264 | 10.0 | 15.0 | 0.00 | 0.00 | 0.00 | 78 | 1017.2 |
| 20260506222509 | 65 | 259 | 10.0 | 15.0 | 0.00 | 0.00 | 0.00 | 79 | 1017.3 |
| 20260506222009 | 65 | 257 | 12.0 | 15.0 | 0.00 | 0.00 | 0.00 | 78 | 1017.3 |
| 20260506221507 | 65 | 265 | 9.0 | 15.0 | 0.00 | 0.00 | 0.00 | 79 | 1017.4 |
| 20260506220012 | 65 | 258 | 9.0 | 15.0 | 0.00 | 0.00 | 0.00 | 80 | 1017.7 |
| 20260506214520 | 65 | 265 | 9.0 | 14.0 | 0.00 | 0.00 | 0.00 | 79 | 1017.8 |
| 20260506213512 | 64 | 245 | 10.0 | 14.0 | 0.00 | 0.00 | 0.00 | 80 | 1017.9 |
| 20260506213021 | 64 | 219 | 10.0 | 14.0 | 0.00 | 0.00 | 0.00 | 80 | 1017.9 |
| 20260506212507 | 64 | 235 | 9.0 | 14.0 | 0.00 | 0.00 | 0.00 | 79 | 1017.9 |
| 20260506212011 | 64 | 248 | 9.0 | 14.0 | 0.00 | 0.00 | 0.00 | 78 | 1018.0 |
| 20260506211523 | 64 | 250 | 9.0 | 13.0 | 0.00 | 0.00 | 0.00 | 79 | 1018.0 |
| 20260506211006 | 64 | 253 | 9.0 | 12.0 | 0.00 | 0.00 | 0.00 | 79 | 1018.1 |
| 20260506210506 | 64 | 224 | 7.0 | 12.0 | 0.00 | 0.00 | 0.00 | 79 | 1018.2 |
| 20260506204515 | 64 | 249 | 9.0 | 14.0 | 0.00 | 0.00 | 0.00 | 79 | 1018.2 |
| 20260506203509 | 64 | 218 | 8.0 | 13.0 | 0.00 | 0.00 | 0.00 | 78 | 1018.3 |
| 20260506203022 | 64 | 243 | 8.0 | 13.0 | 0.00 | 0.00 | 0.00 | 78 | 1018.3 |
| 20260506202509 | 64 | 242 | 8.0 | 11.0 | 0.00 | 0.00 | 0.00 | 78 | 1018.4 |
| 20260506201524 | 64 | 259 | 7.0 | 11.0 | 0.00 | 0.00 | 0.00 | 79 | 1018.5 |
| 20260506201008 | 64 | 252 | 9.0 | 11.0 | 0.00 | 0.00 | 0.00 | 80 | 1018.6 |
| 20260506200510 | 64 | 262 | 7.0 | 11.0 | 0.00 | 0.00 | 0.00 | 80 | 1018.5 |
| 20260506200025 | 64 | 221 | 7.0 | 11.0 | 0.00 | 0.00 | 0.00 | 1018.5 | |
| 20260506195509 | 64 | 234 | 6.0 | 11.0 | 0.00 | 0.00 | 0.00 | 1018.5 | |
| 20260506195013 | 64 | 238 | 7.0 | 11.0 | 0.00 | 0.00 | 0.00 | 80 | 1018.7 |
| 20260506194511 | 63 | 274 | 7.0 | 11.0 | 0.00 | 0.00 | 0.00 | 80 | 1018.8 |
| 20260506193018 | 63 | 245 | 7.0 | 11.0 | 0.00 | 0.00 | 0.00 | 79 | 1018.7 |
| 20260506191521 | 62 | 256 | 8.0 | 11.0 | 0.00 | 0.00 | 0.00 | 1018.8 | |
| 20260506190025 | 62 | 242 | 7.0 | 10.0 | 0.00 | 0.00 | 0.00 | 80 | 1019.0 |
| 20260506185502 | 62 | 236 | 7.0 | 9.0 | 0.00 | 0.00 | 0.00 | 80 | 1018.9 |
| 20260506185002 | 62 | 243 | 7.0 | 9.0 | 0.00 | 0.00 | 0.00 | 80 | 1019.0 |
| 20260506184503 | 62 | 243 | 7.0 | 9.0 | 0.00 | 0.00 | 0.00 | 79 | 1019.1 |
| 20260506184005 | 62 | 220 | 6.0 | 8.0 | 0.00 | 0.00 | 0.00 | 80 | 1019.0 |
| 20260506183503 | 62 | 219 | 6.0 | 8.0 | 0.00 | 0.00 | 0.00 | 79 | 1019.1 |
| 20260506183005 | 62 | 236 | 6.0 | 7.0 | 0.00 | 0.00 | 0.00 | 79 | 1019.3 |
| 20260506182503 | 62 | 209 | 5.0 | 7.0 | 0.00 | 0.00 | 0.00 | 79 | 1019.3 |
| 20260506182003 | 62 | 360 | 5.0 | 7.0 | 0.00 | 0.00 | 0.00 | 79 | 1019.3 |
| 20260506181503 | 62 | 202 | 5.0 | 7.0 | 0.00 | 0.00 | 0.00 | 79 | 1019.3 |
| 20260506181003 | 62 | 243 | 4.0 | 7.0 | 0.00 | 0.00 | 0.00 | 79 | 1019.4 |
| 20260506180503 | 62 | 229 | 5.0 | 6.0 | 0.00 | 0.00 | 0.00 | 79 | 1019.3 |
| 20260506180004 | 62 | 205 | 5.0 | 6.0 | 0.00 | 0.00 | 0.00 | 79 | 1019.3 |
| 20260506175504 | 62 | 242 | 5.0 | 7.0 | 0.00 | 0.00 | 0.00 | 80 | 1019.5 |
| 20260506175002 | 62 | 236 | 5.0 | 7.0 | 0.00 | 0.00 | 0.00 | 80 | 1019.5 |
| 20260506174503 | 62 | 231 | 5.0 | 8.0 | 0.00 | 0.00 | 0.00 | 80 | 1019.5 |
| 20260506174002 | 62 | 214 | 6.0 | 8.0 | 0.00 | 0.00 | 0.00 | 80 | 1019.4 |
| 20260506173502 | 62 | 223 | 5.0 | 8.0 | 0.00 | 0.00 | 0.00 | 80 | 1019.3 |
| 20260506173004 | 62 | 232 | 5.0 | 6.0 | 0.00 | 0.00 | 0.00 | 79 | 1019.4 |
| 20260506172504 | 62 | 229 | 4.0 | 5.0 | 0.00 | 0.00 | 0.00 | 79 | 1019.5 |
| 20260506172003 | 62 | 220 | 4.0 | 6.0 | 0.00 | 0.00 | 0.00 | 79 | 1019.5 |
| 20260506171511 | 62 | 237 | 4.0 | 6.0 | 0.00 | 0.00 | 0.00 | 78 | 1019.5 |
| 20260506171003 | 62 | 199 | 3.0 | 5.0 | 0.00 | 0.00 | 0.00 | 79 | 1019.5 |
| 20260506170505 | 61 | 203 | 3.0 | 5.0 | 0.00 | 0.00 | 0.00 | 78 | 1019.5 |
| 20260506170004 | 62 | 246 | 3.0 | 5.0 | 0.00 | 0.00 | 0.00 | 77 | 1019.5 |
| 20260506165503 | 62 | 216 | 3.0 | 5.0 | 0.00 | 0.00 | 0.00 | 78 | 1019.4 |
| 20260506165003 | 62 | 216 | 3.0 | 5.0 | 0.00 | 0.00 | 0.00 | 78 | 1019.4 |
| 20260506164503 | 62 | 200 | 3.0 | 5.0 | 0.00 | 0.00 | 0.00 | 78 | 1019.4 |
| 20260506164006 | 62 | 214 | 3.0 | 4.0 | 0.00 | 0.00 | 0.00 | 77 | 1019.4 |
| 20260506163502 | 62 | 210 | 2.0 | 4.0 | 0.00 | 0.00 | 0.00 | 77 | 1019.5 |
| 20260506163003 | 62 | 240 | 2.0 | 4.0 | 0.00 | 0.00 | 0.00 | 77 | 1019.5 |
| 20260506162502 | 62 | 284 | 2.0 | 4.0 | 0.00 | 0.00 | 0.00 | 76 | 1019.5 |
| 20260506162002 | 62 | 214 | 2.0 | 3.0 | 0.00 | 0.00 | 0.00 | 76 | 1019.5 |
| 20260506161504 | 62 | 220 | 2.0 | 3.0 | 0.00 | 0.00 | 0.00 | 75 | 1019.5 |
| 20260506161003 | 63 | 193 | 1.0 | 2.0 | 0.00 | 0.00 | 0.00 | 74 | 1019.4 |
| 20260506160503 | 63 | 236 | 0.0 | 3.0 | 0.00 | 0.00 | 0.00 | 74 | 1019.5 |
| 20260506160007 | 63 | 354 | 1.0 | 3.0 | 0.00 | 0.00 | 0.00 | 74 | 1019.5 |
| 20260506150017 | 58 | 35 | 4.0 | 7.0 | 0.00 | 0.00 | 0.00 | 82 | 1019.3 |
| 20260506145512 | 57 | 53 | 4.0 | 6.0 | 0.00 | 0.00 | 0.00 | 83 | 1019.3 |
| 20260506141008 | 54 | 35 | 4.0 | 7.0 | 0.00 | 0.00 | 0.00 | 87 | 1019.1 |
| 20260506140504 | 53 | 23 | 3.0 | 6.0 | 0.00 | 0.00 | 0.00 | 88 | 1019.2 |
| 20260506140020 | 53 | 8 | 4.0 | 7.0 | 0.00 | 0.00 | 0.00 | 88 | 1019.1 |
| 20260506135504 | 53 | 32 | 4.0 | 8.0 | 0.00 | 0.00 | 0.00 | 88 | 1018.9 |
| 20260506134517 | 52 | 39 | 5.0 | 7.0 | 0.00 | 0.00 | 0.00 | 88 | 1018.8 |
| 20260506133506 | 52 | 19 | 4.0 | 6.0 | 0.00 | 0.00 | 0.00 | 89 | 1018.7 |
| 20260506133039 | 52 | 34 | 3.0 | 0.0 | 0.00 | 0.00 | 0.00 | 89 | 1018.7 |
| 20260506132514 | 0 | 0.0 | 0.0 | 0.00 | 0.00 | 0.00 | 1018.6 | ||
| 20260506132011 | 0 | 0.0 | 0.0 | 0.00 | 0.00 | 0.00 | 1018.6 | ||
| 20260506131535 | 52 | 0.0 | 0.0 | 0.00 | 0.00 | 0.00 | 1018.5 | ||
| 20260506131015 | 52 | 120 | 0.0 | 0.0 | 0.00 | 0.00 | 0.00 | 100 | 1018.5 |